sat.trackr.live / text

‹ back to catalog

THEA

NORAD 43796 · 2018-099AQ

PAYLOAD ACTIVE UNKNOWN

§ Identity

Operator
Country
US
Launch date
2018-12-03
Launch site
AFWTR
Launch vehicle
Mass (kg)
RCS (m²)

External: N2YO · Heavens-Above · Gunter

§ Orbital elements

Epoch: 2026-05-25T04:25:39.239616Z

Period
93.87 min
Inclination
97.4454°
Eccentricity
0.0007144
Mean motion
15.34117684 rev/d
Perigee alt
458.7 km
Apogee alt
468.4 km
Semi-major
6,841.7 km
B*
5.3899e-4
RAAN
214.6667°
Arg perigee
20.0793°
Mean anomaly
340.0730°
Rev number
40,916

§ Raw data

THEA1 43796U 18099AQ  26145.18448194  .00017750  00000+0  53899-3 0  99992 43796  97.4454 214.6667 0007144  20.0793 340.0730 15.34117684409160

JSON: /api/v1/satellites/43796 · /tle

For live sub-satellite position, see the globe view (requires WebGL).

§ Visibility from observer

Set your observer location to see the next 7 days of passes ≥ 10°. The values pass through the URL so the page stays shareable.

No JS? Fill the form by hand. The geolocation button needs JavaScript.

§ Radio — SatNOGS DB

ModeDescriptionDownlinkUplink
FSK AX.100 Mode 5 Mode U - 2k4 TLM 400.595 MHz

1 transmitter · refreshed weekly from db.satnogs.org